カタログに戻る

SCOUT B R/B

運用中UNKNOWN
NORAD 1502·ROCKET BODY·🇺🇸 United States

打ち上げ Aug 10, 1965 から Wallops Flight Facility

Loading…

次のパス (今後24時間)

TLE

最新Source: Space-Track

元期: Sep 14, 2026, 14:25 UTC

1 01502U 65063B   26257.60075668  .00000009  00000-0  27492-3 0  9994
2 01502  69.2287 118.7501 0783030 101.0968 296.2806 11.78606569628933

AllMySatでSCOUT B R/Bをリアルタイム追跡

Download on the App Store